KLM14G EKYT-EHAM

Flight info

Callsign KLM14G
Flight time 0h 59m
Altitude 34000
Route GELBA DCT LUTIR DCT MOXCI P174 KUBAT T200 BLUFA
Aircraft E170/M-SDE3GILORVW/S

Departure

Time 2026-04-29 10:29
Airport Aalborg Airport (EKYT)

Arrival

Time 2026-04-29 11:28
Airport Amsterdam Airport Schiphol (EHAM)
Time Latitude Longitude Altitude Speed Heading
2026-04-29 10:09 57.08543 9.87190 16 ft 0 kts 54°
2026-04-29 10:23 57.08544 9.87190 16 ft 0 kts 57°
2026-04-29 10:23 57.08544 9.87191 16 ft 0 kts 62°
2026-04-29 10:23 57.08544 9.87194 16 ft 0 kts 68°
2026-04-29 10:24 57.08544 9.87198 16 ft 0 kts 110°
2026-04-29 10:24 57.08541 9.87200 16 ft 0 kts 179°
2026-04-29 10:24 57.08534 9.87184 16 ft 3 kts 236°
2026-04-29 10:24 57.08524 9.87132 16 ft 5 kts 279°
2026-04-29 10:25 57.08558 9.87053 14 ft 9 kts 313°
2026-04-29 10:25 57.08612 9.86953 13 ft 11 kts 316°
2026-04-29 10:25 57.08676 9.86844 13 ft 12 kts 318°
2026-04-29 10:25 57.08751 9.86726 11 ft 15 kts 320°
2026-04-29 10:26 57.08839 9.86587 10 ft 16 kts 327°
2026-04-29 10:26 57.08934 9.86466 12 ft 16 kts 321°
2026-04-29 10:26 57.09024 9.86331 13 ft 16 kts 323°
2026-04-29 10:26 57.09121 9.86196 13 ft 17 kts 323°
2026-04-29 10:27 57.09328 9.85906 13 ft 19 kts 322°
2026-04-29 10:27 57.09436 9.85749 13 ft 20 kts 324°
2026-04-29 10:27 57.09502 9.85690 13 ft 8 kts 347°
2026-04-29 10:28 57.09524 9.85617 14 ft 7 kts 252°
2026-04-29 10:28 57.09513 9.85509 13 ft 14 kts 263°
2026-04-29 10:28 57.09465 9.84780 13 ft 98 kts 263°
2026-04-29 10:28 57.09369 9.83265 378 ft 123 kts 262°
2026-04-29 10:29 57.09300 9.81700 988 ft 131 kts 266°
2026-04-29 10:29 57.09249 9.80026 1516 ft 138 kts 263°
2026-04-29 10:29 57.09075 9.78136 1801 ft 159 kts 262°
2026-04-29 10:29 57.08929 9.75912 1942 ft 192 kts 265°
2026-04-29 10:30 57.08776 9.73393 2438 ft 209 kts 255°
2026-04-29 10:30 57.07904 9.71190 2897 ft 230 kts 210°
2026-04-29 10:30 57.06383 9.70287 3710 ft 233 kts 194°
2026-04-29 10:30 57.04750 9.69442 4156 ft 255 kts 197°
2026-04-29 10:31 57.03027 9.68402 4710 ft 271 kts 199°
2026-04-29 10:31 57.01228 9.67235 5446 ft 280 kts 199°
2026-04-29 10:31 56.99388 9.66000 6261 ft 285 kts 200°
2026-04-29 10:31 56.97538 9.64740 7092 ft 290 kts 200°
2026-04-29 10:32 56.95636 9.63435 7888 ft 296 kts 200°
2026-04-29 10:32 56.93693 9.62100 8663 ft 303 kts 200°
2026-04-29 10:32 56.91715 9.60740 9460 ft 308 kts 200°
2026-04-29 10:32 56.89722 9.59370 10231 ft 314 kts 200°
2026-04-29 10:33 56.87653 9.57948 11003 ft 321 kts 200°
2026-04-29 10:33 56.85562 9.56513 11648 ft 331 kts 200°
2026-04-29 10:33 56.83368 9.55010 12238 ft 344 kts 200°
2026-04-29 10:33 56.81076 9.53442 12812 ft 356 kts 200°
2026-04-29 10:34 56.78742 9.51845 13467 ft 365 kts 200°
2026-04-29 10:34 56.76371 9.50227 14191 ft 371 kts 200°
2026-04-29 10:34 56.73953 9.48578 14971 ft 376 kts 200°
2026-04-29 10:34 56.71513 9.46917 15740 ft 380 kts 200°
2026-04-29 10:35 56.69019 9.45221 16479 ft 384 kts 200°
2026-04-29 10:35 56.66538 9.43537 17170 ft 389 kts 199°
2026-04-29 10:35 56.64005 9.41820 17833 ft 394 kts 200°
2026-04-29 10:35 56.61422 9.40072 18494 ft 398 kts 199°
2026-04-29 10:36 56.58806 9.38303 19143 ft 403 kts 199°
2026-04-29 10:36 56.56200 9.36545 19780 ft 406 kts 199°
2026-04-29 10:36 56.53552 9.34760 20419 ft 410 kts 198°
2026-04-29 10:36 56.50872 9.32957 21057 ft 413 kts 199°
2026-04-29 10:37 56.48199 9.31160 21654 ft 416 kts 198°
2026-04-29 10:37 56.45475 9.29332 22234 ft 419 kts 199°
2026-04-29 10:37 56.42728 9.27492 22787 ft 423 kts 198°
2026-04-29 10:37 56.40006 9.25672 23309 ft 427 kts 199°
2026-04-29 10:38 56.37191 9.23791 23839 ft 431 kts 198°
2026-04-29 10:38 56.34382 9.21919 24370 ft 434 kts 198°
2026-04-29 10:38 56.31556 9.20038 24885 ft 438 kts 198°
2026-04-29 10:38 56.28717 9.18151 25391 ft 441 kts 198°
2026-04-29 10:39 56.25819 9.16229 25910 ft 444 kts 199°
2026-04-29 10:39 56.22932 9.14315 26425 ft 447 kts 198°
2026-04-29 10:39 56.20013 9.12384 26878 ft 451 kts 198°
2026-04-29 10:39 56.17064 9.10437 27337 ft 454 kts 198°
2026-04-29 10:40 56.14127 9.08501 27761 ft 458 kts 198°
2026-04-29 10:40 56.11105 9.06512 28208 ft 461 kts 198°
2026-04-29 10:40 56.08101 9.04538 28656 ft 464 kts 198°
2026-04-29 10:40 56.05082 9.02556 29087 ft 467 kts 198°
2026-04-29 10:41 56.02042 9.00566 29500 ft 470 kts 198°
2026-04-29 10:41 55.98975 8.98561 29918 ft 473 kts 198°
2026-04-29 10:41 55.95887 8.96547 30305 ft 476 kts 198°
2026-04-29 10:41 55.92736 8.94492 30701 ft 480 kts 198°
2026-04-29 10:42 55.89613 8.92461 31093 ft 482 kts 198°
2026-04-29 10:42 55.86467 8.90418 31479 ft 484 kts 198°
2026-04-29 10:42 55.83293 8.88361 31857 ft 486 kts 198°
2026-04-29 10:42 55.80151 8.86328 32219 ft 488 kts 198°
2026-04-29 10:43 55.76958 8.84266 32580 ft 491 kts 198°
2026-04-29 10:43 55.73737 8.82188 32935 ft 493 kts 198°
2026-04-29 10:43 55.70535 8.80195 33265 ft 495 kts 197°
2026-04-29 10:43 55.67274 8.78206 33604 ft 497 kts 197°
2026-04-29 10:44 55.64021 8.76220 33910 ft 499 kts 197°
2026-04-29 10:44 55.60709 8.74202 34225 ft 502 kts 197°
2026-04-29 10:44 55.57472 8.72230 34450 ft 496 kts 197°
2026-04-29 10:45 55.50843 8.68210 34486 ft 511 kts 197°
2026-04-29 10:45 55.44188 8.64184 34474 ft 504 kts 197°
2026-04-29 10:46 55.37530 8.60174 34480 ft 514 kts 197°
2026-04-29 10:46 55.30790 8.56126 34480 ft 513 kts 197°
2026-04-29 10:46 55.27467 8.54134 34463 ft 501 kts 197°
2026-04-29 10:47 55.24182 8.52172 34486 ft 508 kts 196°
2026-04-29 10:47 55.17413 8.48137 34482 ft 517 kts 196°
2026-04-29 10:48 55.10676 8.44135 34482 ft 514 kts 196°
2026-04-29 10:48 55.03947 8.39897 34485 ft 516 kts 202°
2026-04-29 10:49 54.97421 8.35002 34491 ft 515 kts 201°
2026-04-29 10:49 54.90808 8.30153 34481 ft 515 kts 200°
2026-04-29 10:50 54.84251 8.25368 34478 ft 515 kts 200°
2026-04-29 10:50 54.77654 8.20571 34474 ft 514 kts 200°
2026-04-29 10:51 54.71068 8.15797 34469 ft 513 kts 200°
2026-04-29 10:51 54.64518 8.11068 34473 ft 514 kts 200°
2026-04-29 10:52 54.57946 8.06339 34473 ft 514 kts 200°
2026-04-29 10:52 54.51389 8.01637 34471 ft 513 kts 200°
2026-04-29 10:53 54.44800 7.96929 34466 ft 513 kts 200°
2026-04-29 10:53 54.38248 7.92263 34467 ft 513 kts 200°
2026-04-29 10:54 54.31676 7.87600 34472 ft 512 kts 199°
2026-04-29 10:54 54.25116 7.82962 34474 ft 513 kts 200°
2026-04-29 10:55 54.18543 7.78330 34472 ft 512 kts 199°
2026-04-29 10:55 54.12008 7.73740 34471 ft 511 kts 199°
2026-04-29 10:56 54.05426 7.69133 34467 ft 512 kts 199°
2026-04-29 10:56 53.98863 7.64555 34474 ft 511 kts 199°
2026-04-29 10:57 53.92324 7.60012 34471 ft 510 kts 199°
2026-04-29 10:57 53.85725 7.55788 34456 ft 506 kts 198°
2026-04-29 10:58 53.79339 7.51103 34457 ft 502 kts 208°
2026-04-29 10:58 53.73551 7.44553 34477 ft 503 kts 213°
2026-04-29 10:59 53.67796 7.37969 34484 ft 502 kts 212°
2026-04-29 10:59 53.61985 7.31347 34481 ft 502 kts 212°
2026-04-29 11:00 53.56268 7.24855 34370 ft 489 kts 212°
2026-04-29 11:00 53.53512 7.21731 33675 ft 482 kts 211°
2026-04-29 11:00 53.50715 7.18570 32667 ft 484 kts 212°
2026-04-29 11:00 53.47883 7.15372 31900 ft 499 kts 211°
2026-04-29 11:01 53.45042 7.12167 31099 ft 496 kts 211°
2026-04-29 11:01 53.42199 7.08967 30281 ft 488 kts 211°
2026-04-29 11:01 53.39402 7.05824 29459 ft 480 kts 211°
2026-04-29 11:01 53.36678 7.02768 28650 ft 471 kts 211°
2026-04-29 11:02 53.33991 6.99757 27836 ft 463 kts 211°
2026-04-29 11:02 53.31469 6.96577 27030 ft 457 kts 218°
2026-04-29 11:02 53.29043 6.93245 26230 ft 451 kts 217°
2026-04-29 11:02 53.26605 6.89965 25419 ft 445 kts 218°
2026-04-29 11:03 53.24231 6.86792 24644 ft 438 kts 217°
2026-04-29 11:03 53.21887 6.83669 24149 ft 429 kts 218°
2026-04-29 11:03 53.19554 6.80565 23669 ft 429 kts 218°
2026-04-29 11:03 53.17225 6.77472 23199 ft 430 kts 217°
2026-04-29 11:04 53.14915 6.74409 22730 ft 427 kts 218°
2026-04-29 11:04 53.12619 6.71369 22266 ft 423 kts 218°
2026-04-29 11:04 53.10321 6.68330 21803 ft 418 kts 218°
2026-04-29 11:04 53.08074 6.65362 21349 ft 415 kts 218°
2026-04-29 11:05 53.05833 6.62408 20890 ft 412 kts 218°
2026-04-29 11:05 53.03596 6.59461 20435 ft 408 kts 218°
2026-04-29 11:05 53.01375 6.56540 19989 ft 404 kts 218°
2026-04-29 11:05 52.99215 6.53703 19542 ft 400 kts 218°
2026-04-29 11:06 52.97048 6.50861 19097 ft 397 kts 218°
2026-04-29 11:06 52.95026 6.47807 18576 ft 394 kts 234°
2026-04-29 11:06 52.93662 6.43966 18550 ft 384 kts 239°
2026-04-29 11:06 52.92119 6.40358 18237 ft 391 kts 234°
2026-04-29 11:07 52.90474 6.36832 17863 ft 391 kts 233°
2026-04-29 11:07 52.88768 6.33271 17460 ft 389 kts 232°
2026-04-29 11:07 52.87086 6.29797 17053 ft 385 kts 231°
2026-04-29 11:07 52.85430 6.26390 16651 ft 382 kts 231°
2026-04-29 11:08 52.83755 6.22951 16245 ft 381 kts 231°
2026-04-29 11:08 52.82100 6.19559 15838 ft 378 kts 231°
2026-04-29 11:08 52.80465 6.16213 15444 ft 376 kts 231°
2026-04-29 11:08 52.78841 6.12896 15060 ft 375 kts 231°
2026-04-29 11:09 52.77212 6.09570 14696 ft 373 kts 231°
2026-04-29 11:09 52.75590 6.06265 14320 ft 370 kts 231°
2026-04-29 11:09 52.73978 6.02984 13965 ft 368 kts 231°
2026-04-29 11:09 52.72371 5.99716 13570 ft 365 kts 230°
2026-04-29 11:10 52.70788 5.96502 13178 ft 361 kts 230°
2026-04-29 11:10 52.69202 5.93286 12780 ft 360 kts 230°
2026-04-29 11:10 52.67643 5.90129 12387 ft 357 kts 230°
2026-04-29 11:10 52.66090 5.86987 12015 ft 352 kts 230°
2026-04-29 11:11 52.64555 5.83886 11669 ft 343 kts 230°
2026-04-29 11:11 52.63075 5.80901 11336 ft 336 kts 230°
2026-04-29 11:11 52.61637 5.78002 10966 ft 325 kts 230°
2026-04-29 11:11 52.60230 5.75171 10599 ft 313 kts 230°
2026-04-29 11:12 52.58873 5.72442 10252 ft 306 kts 230°
2026-04-29 11:12 52.57542 5.69770 9908 ft 304 kts 230°
2026-04-29 11:12 52.56203 5.67082 9553 ft 305 kts 230°
2026-04-29 11:12 52.54854 5.64378 9220 ft 306 kts 230°
2026-04-29 11:13 52.53511 5.61689 8885 ft 304 kts 230°
2026-04-29 11:13 52.52184 5.59035 8542 ft 304 kts 229°
2026-04-29 11:13 52.50894 5.56281 8207 ft 304 kts 237°
2026-04-29 11:13 52.49802 5.53320 7923 ft 302 kts 238°
2026-04-29 11:14 52.48727 5.50390 7656 ft 300 kts 238°
2026-04-29 11:14 52.47650 5.47460 7387 ft 300 kts 238°
2026-04-29 11:14 52.46590 5.44576 7120 ft 299 kts 238°
2026-04-29 11:14 52.45524 5.41655 6852 ft 298 kts 238°
2026-04-29 11:15 52.44458 5.38729 6582 ft 298 kts 238°
2026-04-29 11:15 52.43413 5.35838 6330 ft 297 kts 238°
2026-04-29 11:15 52.42361 5.32915 6045 ft 295 kts 237°
2026-04-29 11:15 52.41326 5.30039 5784 ft 295 kts 237°
2026-04-29 11:16 52.40290 5.27148 5516 ft 294 kts 237°
2026-04-29 11:16 52.39251 5.24249 5253 ft 293 kts 237°
2026-04-29 11:16 52.38224 5.21393 4965 ft 292 kts 237°
2026-04-29 11:16 52.37210 5.18579 4692 ft 290 kts 237°
2026-04-29 11:17 52.36185 5.15728 4440 ft 289 kts 237°
2026-04-29 11:17 52.35170 5.12920 4367 ft 287 kts 237°
2026-04-29 11:17 52.34155 5.10107 4352 ft 288 kts 237°
2026-04-29 11:17 52.33133 5.07257 4356 ft 288 kts 237°
2026-04-29 11:18 52.32117 5.04426 4351 ft 290 kts 237°
2026-04-29 11:18 52.31110 5.01615 4347 ft 289 kts 237°
2026-04-29 11:18 52.30100 4.98798 4342 ft 289 kts 238°
2026-04-29 11:18 52.29081 4.95959 4355 ft 289 kts 238°
2026-04-29 11:19 52.28061 4.93116 4352 ft 290 kts 237°
2026-04-29 11:19 52.27045 4.90283 4342 ft 289 kts 238°
2026-04-29 11:19 52.26025 4.87443 4349 ft 291 kts 238°
2026-04-29 11:19 52.25009 4.84628 4349 ft 290 kts 238°
2026-04-29 11:20 52.23980 4.81773 4344 ft 291 kts 238°
2026-04-29 11:20 52.22953 4.78930 4345 ft 291 kts 238°
2026-04-29 11:20 52.21933 4.76104 4345 ft 290 kts 238°
2026-04-29 11:20 52.20914 4.73275 4351 ft 291 kts 238°
2026-04-29 11:21 52.19920 4.70510 4229 ft 280 kts 238°
2026-04-29 11:21 52.18947 4.67788 3751 ft 282 kts 238°
2026-04-29 11:21 52.17935 4.64977 3276 ft 290 kts 238°
2026-04-29 11:21 52.16913 4.62141 2767 ft 289 kts 238°
2026-04-29 11:22 52.15948 4.59343 2450 ft 282 kts 248°
2026-04-29 11:22 52.15766 4.56232 2202 ft 278 kts 286°
2026-04-29 11:22 52.16660 4.53562 2030 ft 267 kts 324°
2026-04-29 11:22 52.18144 4.51818 2011 ft 263 kts 333°
2026-04-29 11:23 52.19712 4.50329 1984 ft 257 kts 350°
2026-04-29 11:23 52.21377 4.50319 1994 ft 226 kts 28°
2026-04-29 11:23 52.22443 4.51818 1981 ft 192 kts 69°
2026-04-29 11:23 52.22599 4.53812 2002 ft 172 kts 91°
2026-04-29 11:24 52.22513 4.55661 1996 ft 155 kts 93°
2026-04-29 11:24 52.22604 4.57266 1966 ft 138 kts 66°
2026-04-29 11:24 52.23073 4.58582 1979 ft 135 kts 63°
2026-04-29 11:24 52.23563 4.59892 1939 ft 138 kts 62°
2026-04-29 11:25 52.24072 4.61221 1775 ft 137 kts 62°
2026-04-29 11:25 52.24583 4.62544 1604 ft 137 kts 62°
2026-04-29 11:25 52.25091 4.63858 1427 ft 141 kts 60°
2026-04-29 11:25 52.25611 4.65200 1239 ft 140 kts 62°
2026-04-29 11:26 52.26579 4.67703 891 ft 124 kts 59°
2026-04-29 11:26 52.27043 4.68821 619 ft 114 kts 59°
2026-04-29 11:26 52.27457 4.69891 454 ft 110 kts 61°
2026-04-29 11:27 52.27833 4.70941 353 ft 108 kts 56°
2026-04-29 11:27 52.28273 4.71938 244 ft 107 kts 63°
2026-04-29 11:27 52.28646 4.72974 125 ft 108 kts 64°
2026-04-29 11:27 52.29040 4.74029 0 ft 105 kts 60°
2026-04-29 11:28 52.29354 4.74885 -1 ft 66 kts 58°
2026-04-29 11:28 52.29528 4.75379 -5 ft 44 kts 52°
2026-04-29 11:28 52.29703 4.75734 -5 ft 34 kts 34°
2026-04-29 11:28 52.29847 4.75859 -5 ft 18 kts 28°
2026-04-29 11:29 52.29936 4.75935 -3 ft 8 kts 28°
2026-04-29 11:29 52.29985 4.75985 -2 ft 8 kts 40°
2026-04-29 11:29 52.30019 4.76055 -2 ft 8 kts 55°
2026-04-29 11:29 52.30049 4.76135 -1 ft 8 kts 60°
2026-04-29 11:30 52.30088 4.76235 -3 ft 11 kts 58°
2026-04-29 11:30 52.30152 4.76277 -2 ft 10 kts 339°
2026-04-29 11:30 52.30218 4.76250 -1 ft 9 kts 332°
2026-04-29 11:30 52.30269 4.76199 0 ft 8 kts 330°
2026-04-29 11:31 52.30314 4.76153 0 ft 6 kts 328°
2026-04-29 11:31 52.30349 4.76117 1 ft 5 kts 327°
2026-04-29 11:31 52.30374 4.76105 2 ft 3 kts 40°
2026-04-29 11:31 52.30387 4.76145 2 ft 2 kts 58°
2026-04-29 11:32 52.30392 4.76157 1 ft 0 kts 58°